Bluefield, WV

3:20 PM EDT on August 20, 2017 (GMT -0400)
Mercer County

Weather History for KBLF - January, 2013

Change the Weather History Date:

Tuesday, January 29, 2013

  Actual Average Record
Temperature  
Mean Temperature 59 °F 35 °F  
Max Temperature 68 °F 43 °F 68 °F (2013)
Min Temperature 50 °F 27 °F -2 °F (1977)
Degree Days  
Heating Degree Days 6 30  
Month to date heating degree days 776 896  
Since 1 July heating degree days 2536 2661  
Cooling Degree Days 0 0  
Month to date cooling degree days 1 0  
Year to date cooling degree days 1 0  
Growing Degree Days 9 (Base 50)    
Moisture  
Dew Point 46 °F    
Average Humidity 64    
Maximum Humidity 83    
Minimum Humidity 45    
Precipitation  
Precipitation 0.08 in 0.09 in 1.04 in (1970)
Month to date precipitation 4.16 2.72  
Year to date precipitation 4.16 2.72  
Snow  
Snow 0.00 in - - ()
Month to date snowfall 11.3  
Since 1 July snowfall 28.2  
Snow Depth 0.00 in    
Sea Level Pressure  
Sea Level Pressure 30.09 in    
Wind  
Wind Speed 10 mph (SW)    
Max Wind Speed 17 mph    
Max Gust Speed 25 mph    
Visibility 10 miles    
Events Rain    
T = Trace of Precipitation, MM = Missing Value Source: NWS Daily Summary

Daily Weather History Graph

Daily Weather History Graph

Search for Another Location

Airport or City:

Trip Planner

Search our weather history database for the weather conditions in past years. The results will help you decide how hot, cold, wet, or windy it might be!

Date:

Astronomy

Jan. 29, 2013 Rise Set
Actual Time 7:30 AM EST 5:46 PM EST
Civil Twilight 7:02 AM EST 6:14 PM EST
Nautical Twilight 6:31 AM EST 6:45 PM EST
Astronomical Twilight 6:00 AM EST 7:16 PM EST
Moon 8:36 PM EST (1/29) 8:30 AM EST (1/29)
Length of Visible Light 11h 11m
Length of Day
10h 16m
Waning Gibbous, 94% of the Moon is Illuminated
Jan 29
Waning Gibbous
Feb 3
Last Quarter
Feb 10
New
Feb 17
First Quarter
Feb 25
Full

Hourly Weather History & Observations

Time (EST) Temp. Dew Point Humidity Pressure Visibility Wind Dir Wind Speed Gust Speed Precip Events Conditions
12:52 AM 51.1 °F 45.0 °F 80% 30.15 in 10.0 mi WSW 16.1 mph - 0.02 in   Overcast
1:37 AM 51.8 °F 44.6 °F 76% 30.19 in 10.0 mi West 12.7 mph - N/A   Overcast
1:52 AM 51.1 °F 45.0 °F 80% 30.14 in 10.0 mi West 15.0 mph 21.9 mph N/A   Overcast
2:01 AM 51.8 °F 44.6 °F 76% 30.19 in 10.0 mi West 11.5 mph 19.6 mph N/A   Overcast
2:52 AM 51.1 °F 45.0 °F 80% 30.15 in 10.0 mi West 12.7 mph - 0.04 in Rain Light Rain
3:25 AM 51.8 °F 44.6 °F 76% 30.18 in 10.0 mi West 13.8 mph - 0.02 in   Overcast
3:52 AM 50.0 °F 45.0 °F 83% 30.14 in 10.0 mi WSW 9.2 mph - 0.02 in   Overcast
4:52 AM 51.1 °F 45.0 °F 80% 30.14 in 10.0 mi West 12.7 mph - N/A   Overcast
5:52 AM 52.0 °F 46.0 °F 80% 30.13 in 10.0 mi WSW 9.2 mph - N/A   Overcast
6:43 AM 53.6 °F 44.6 °F 72% 30.17 in 10.0 mi WSW 11.5 mph - 0.01 in   Overcast
6:52 AM 53.1 °F 45.0 °F 74% 30.15 in 10.0 mi West 11.5 mph - 0.01 in   Overcast
6:59 AM 53.6 °F 44.6 °F 72% 30.18 in 10.0 mi West 9.2 mph - N/A   Overcast
7:52 AM 52.0 °F 42.1 °F 69% 30.15 in 10.0 mi West 9.2 mph - N/A   Scattered Clouds
8:52 AM 55.0 °F 43.0 °F 64% 30.15 in 10.0 mi West 10.4 mph - N/A   Scattered Clouds
9:52 AM 57.9 °F 45.0 °F 62% 30.15 in 10.0 mi West 13.8 mph 20.7 mph N/A   Mostly Cloudy
10:52 AM 60.1 °F 46.9 °F 62% 30.14 in 10.0 mi West 9.2 mph - N/A   Clear
11:52 AM 64.0 °F 48.0 °F 56% 30.12 in 10.0 mi Variable 6.9 mph - N/A   Partly Cloudy
12:52 PM 64.9 °F 44.1 °F 47% 30.08 in 10.0 mi SSW 8.1 mph - N/A   Scattered Clouds
1:52 PM 64.9 °F 45.0 °F 48% 30.05 in 10.0 mi South 8.1 mph - N/A   Mostly Cloudy
2:52 PM 68.0 °F 46.0 °F 45% 30.03 in 10.0 mi SSW 8.1 mph - N/A   Scattered Clouds
3:52 PM 66.0 °F 46.0 °F 48% 30.02 in 10.0 mi SW 5.8 mph - N/A   Clear
4:52 PM 64.0 °F 46.0 °F 52% 30.01 in 10.0 mi WSW 6.9 mph - N/A   Clear
5:52 PM 62.1 °F 46.0 °F 56% 30.01 in 10.0 mi SSW 4.6 mph - N/A   Clear
6:52 PM 62.1 °F 45.0 °F 53% 29.99 in 10.0 mi SSW 5.8 mph - N/A   Clear
7:52 PM 61.0 °F 45.0 °F 56% 29.99 in 10.0 mi SSE 6.9 mph - N/A   Clear
8:52 PM 60.1 °F 46.0 °F 60% 29.99 in 10.0 mi SW 6.9 mph - N/A   Clear
9:52 PM 59.0 °F 48.0 °F 67% 29.96 in 10.0 mi South 11.5 mph 18.4 mph N/A   Clear
10:52 PM 60.1 °F 48.9 °F 67% 29.94 in 10.0 mi South 12.7 mph 24.2 mph N/A   Clear
11:52 PM 61.0 °F 50.0 °F 67% 29.90 in 10.0 mi South 8.1 mph 25.3 mph N/A   Clear